Tracking 25372 objects as of 23-Jan-2022
HD Live streaming from Space Station
objects crossing your sky now

XJS H

Track XJS H now!
10-day predictions


NORAD ID: 45612
Int'l Code: 2020-032B
Perigee: 473.3 km
Apogee: 482.0 km
Inclination: 35.0 °
Period: 94.0 minutes
Semi major axis: 6848 km
RCS: Unknown
Launch date: May 29, 2020
Source: People's Republic of China (PRC)
Launch site: Xichang Space Center, China (XSC)
aabbcc
Your satellite tracking list
Your tracking list is empty




NASA's NSSDC Master Catalog

Two Line Element Set (TLE):
1 45612U 20032B   22023.43285825  .00004939  00000-0  15800-3 0  9993
2 45612  35.0349 294.5587 0006354 197.5852 162.4647 15.31773299 92456
Source of the keplerian elements: AFSPC